Theta_e
317 317 317 317 316 316 316 316 316 316 315 315 315 316 316 315 310 296 292 302 307 316 316 303 298 297 298 299 303 300 292 288 291 291 294 293 292 293 292 291 292 293 297 296 295
318 317 316 316 316 316 316 316 316 316 316 315 315 315 315 314 299 292 301 312 313 315 301 296 293 295 294 296 298 295 289 291 292 293 292 291 290 289 290 287 289 290 294 294 294
317 317 317 316 316 316 316 316 315 316 316 315 315 315 314 308 294 290 308 312 313 311 302 298 296 295 293 295 294 293 288 290 290 290 290 288 287 289 286 286 288 288 291 291 292
318 317 317 317 316 316 316 316 315 315 315 315 315 314 314 296 283 293 309 310 310 304 300 295 294 291 290 290 292 289 291 290 290 290 288 286 287 286 285 287 288 289 290 290 291
318 318 316 317 317 316 316 315 315 315 315 314 314 314 299 288 287 297 306 304 300 300 296 294 291 291 288 288 288 287 286 288 288 288 287 288 286 286 286 288 289 290 290 290 289
319 318 317 316 317 317 316 315 315 314 315 315 314 312 294 284 295 296 298 298 297 296 294 294 292 291 287 286 286 287 286 285 286 286 286 285 284 285 286 287 287 288 288 288 287
319 318 317 316 317 317 316 315 314 314 315 315 314 301 289 287 295 296 298 295 296 295 293 295 295 290 288 285 287 286 283 283 283 285 284 284 281 282 285 286 286 286 286 287 288
319 318 317 317 317 317 316 315 314 315 314 314 312 295 286 295 294 296 296 294 297 296 296 295 295 290 288 288 284 281 280 278 281 283 284 283 278 282 284 283 284 284 286 287 288
315 318 318 318 317 317 316 315 314 312 312 312 296 291 285 300 292 294 295 292 294 294 295 295 290 286 287 282 280 279 276 277 278 283 282 281 279 282 284 283 283 284 286 286 291
314 315 316 318 317 316 313 311 311 305 302 297 294 286 290 288 292 293 294 295 292 292 290 288 283 279 279 279 276 277 276 277 275 278 279 278 278 282 283 283 284 284 285 286 291
313 313 314 317 317 315 303 293 290 288 292 286 288 287 290 292 295 292 294 293 290 287 281 284 280 277 278 279 279 278 277 276 277 280 279 276 276 280 283 282 283 284 285 287 291
311 312 313 315 316 309 298 293 291 291 285 290 290 291 292 293 288 289 294 287 286 281 283 281 278 280 283 282 281 279 277 276 278 279 279 277 279 282 282 283 284 285 286 288 290
309 311 312 315 314 301 297 296 299 297 283 287 290 290 290 292 286 286 290 286 282 281 281 279 280 283 281 281 279 277 276 276 276 279 280 279 278 279 283 285 286 287 288 289 288
308 309 310 312 302 297 293 300 300 297 280 285 286 288 291 291 285 291 291 287 282 280 281 279 282 281 280 279 279 277 279 279 278 277 273 279 272 278 280 282 284 286 287 287 287
305 307 308 310 301 297 296 300 300 295 278 286 284 293 290 287 287 287 291 287 281 280 279 278 279 279 279 280 279 277 280 280 279 276 276 276 272 277 279 281 282 283 286 286 286
303 305 306 306 301 300 301 300 299 286 277 281 284 284 284 286 285 288 287 288 285 281 279 278 281 280 280 280 280 281 278 278 277 277 267 274 274 275 276 280 281 283 284 286 284
301 303 303 306 300 300 301 299 285 281 284 279 279 283 282 281 283 285 282 280 278 276 275 278 278 280 281 279 281 279 275 267 268 266 268 274 273 277 279 280 282 283 283 284 283
300 302 302 304 302 302 301 290 280 276 276 282 281 282 281 281 282 283 281 278 280 279 276 273 273 278 281 278 277 278 275 269 264 267 268 274 271 277 280 282 283 284 284 283 281
300 294 298 300 302 300 294 283 277 279 284 280 281 278 278 282 281 281 279 279 281 280 278 274 274 279 280 281 280 277 272 276 264 262 266 272 275 279 279 278 280 282 282 281 280
290 290 293 300 300 298 287 285 282 289 285 283 280 279 278 279 279 279 280 282 282 281 280 278 272 277 280 281 281 280 278 272 269 265 265 270 270 275 277 277 280 280 281 282 280
288 285 294 299 299 291 283 286 288 289 287 283 278 276 278 276 280 278 280 282 283 281 281 278 278 274 278 276 276 276 273 272 273 271 266 265 274 277 278 279 277 279 281 281 280
286 280 295 297 286 285 285 287 291 285 288 286 286 286 283 283 280 278 279 281 284 283 279 280 278 271 274 276 278 279 277 274 271 268 268 266 271 280 278 279 278 279 281 281 280
282 283 293 293 281 282 285 286 288 284 283 285 284 287 285 285 283 281 281 284 284 282 280 281 273 269 275 276 277 276 277 275 268 267 268 267 275 279 279 279 280 280 281 280 280
284 275 285 287 287 284 283 284 284 287 286 289 287 286 284 282 284 280 280 283 284 283 286 283 277 274 277 278 276 273 276 274 270 266 267 271 272 282 281 278 280 279 279 279 278
284 277 279 278 280 282 285 284 282 283 285 287 284 285 284 281 281 280 281 281 283 285 282 279 274 273 275 276 275 276 275 274 272 271 273 281 272 280 279 276 277 276 277 277 278
280 280 278 272 279 280 282 281 283 283 282 281 284 284 285 281 282 279 282 281 281 282 280 280 276 275 274 275 274 273 276 276 276 274 272 275 275 284 285 281 278 278 273 274 271
286 285 281 279 273 275 276 279 281 285 284 286 285 282 282 284 283 284 285 285 284 281 279 278 276 274 272 274 272 270 275 276 275 274 275 272 279 278 277 275 273 276 274 274 272
Wind_Speed
14 15 15 16 16 15 14 14 14 13 12 12 11 11 10 10 5 4 2 4 5 9 5 2 1 2 3 3 3 3 4 2 4 6 2 3 3 2 1 2 2 1 3 3 3
14 14 15 16 16 16 15 15 14 14 13 12 10 10 9 9 1 4 3 6 6 6 1 3 3 4 4 2 3 5 4 8 3 3 3 1 1 1 1 3 2 2 2 2 4
12 14 15 16 16 16 16 15 15 13 14 12 10 9 10 4 0 2 5 7 7 3 2 2 3 2 4 2 1 3 5 4 3 3 2 1 2 2 3 5 6 3 2 4 4
12 14 15 16 17 16 15 16 15 14 13 12 10 9 9 0 2 2 8 6 5 5 5 4 2 4 5 6 3 4 3 4 3 1 1 2 1 3 6 5 5 1 3 3 4
11 12 14 16 17 17 17 16 15 15 12 11 9 8 1 0 3 2 6 5 4 3 3 3 3 4 7 5 4 4 3 1 1 3 4 2 5 6 8 8 5 1 2 2 6
10 11 13 15 18 19 19 19 16 14 13 10 8 6 2 2 3 3 5 4 4 3 2 1 6 4 6 4 4 4 3 1 1 3 2 2 3 1 3 3 4 0 6 7 7
11 11 12 15 18 20 21 21 19 16 13 8 6 1 1 2 1 2 4 2 2 3 4 0 3 2 4 5 2 3 3 1 3 3 0 1 6 8 5 1 4 6 8 8 6
11 11 12 13 17 20 23 23 19 14 7 6 3 2 3 2 2 4 3 3 4 3 4 2 3 6 4 3 5 3 4 1 0 5 0 1 8 2 5 4 6 8 7 7 6
18 15 12 14 16 19 23 22 13 4 3 4 2 2 2 4 2 1 2 2 2 3 4 4 6 4 3 5 3 4 2 3 4 3 4 2 7 4 5 4 11 6 6 5 4
19 17 19 13 15 20 22 17 4 3 3 2 1 2 2 3 1 1 1 2 3 3 3 5 5 4 3 3 5 5 3 3 4 2 2 5 15 12 9 5 14 5 6 6 6
20 19 19 17 15 19 11 5 7 3 5 3 2 1 2 1 0 2 1 4 3 6 4 2 3 5 5 2 3 6 3 2 3 1 4 4 10 19 11 7 9 6 7 7 7
19 20 20 20 16 15 4 6 2 3 7 3 3 2 1 1 3 1 1 5 4 4 2 3 4 4 7 4 5 4 2 4 3 0 1 6 21 11 4 5 6 7 7 8 5
20 20 21 20 15 4 2 4 3 5 0 6 4 3 3 4 2 4 3 3 4 5 5 5 1 6 4 3 4 2 2 1 2 5 1 7 8 5 2 2 2 3 4 4 4
23 20 21 21 5 1 0 3 4 2 5 5 2 1 2 2 1 0 1 3 3 7 6 2 3 4 2 3 4 2 4 3 3 4 2 4 6 6 3 6 3 6 6 6 2
23 24 23 15 5 3 2 3 2 2 4 1 1 0 1 3 5 1 1 2 6 5 4 4 7 4 3 1 3 3 3 4 1 2 2 3 4 10 3 6 9 9 8 8 4
22 23 26 8 2 1 1 3 2 3 10 1 2 2 3 1 1 4 4 5 4 4 4 3 1 1 3 4 4 6 5 5 3 1 4 1 4 8 5 6 3 3 8 8 4
22 22 19 6 3 1 1 1 2 6 5 5 2 2 1 3 2 3 3 4 6 5 4 1 2 1 2 5 2 3 5 4 7 5 6 2 1 12 5 5 4 5 8 8 3
21 22 8 4 3 2 1 2 7 5 6 1 1 2 1 2 1 3 2 3 5 3 4 7 5 6 3 1 5 4 6 7 7 3 5 3 8 8 5 1 5 5 5 4 5
17 4 3 3 3 2 2 4 9 8 5 6 0 5 2 3 3 2 6 5 8 11 9 6 1 1 4 1 2 4 2 4 10 1 3 3 8 11 4 8 7 7 6 7 6
3 4 5 6 5 3 3 16 7 5 7 4 7 3 6 6 2 3 6 3 4 5 2 5 5 1 3 1 5 2 5 4 3 1 4 5 7 7 4 4 4 8 11 9 5
2 4 1 1 3 3 12 10 6 5 6 8 8 5 6 6 6 4 4 2 1 3 1 4 4 0 2 7 8 3 0 4 4 3 6 1 8 9 8 7 7 9 9 9 7
1 3 2 1 5 3 12 6 4 4 2 2 4 4 8 8 6 3 7 4 1 4 6 4 5 4 4 1 0 1 5 5 6 5 1 3 11 3 7 6 5 9 8 7 6
3 4 2 1 7 12 2 4 3 4 6 7 8 5 2 7 4 7 4 2 1 2 5 4 2 3 2 2 3 5 5 4 5 4 7 6 9 1 4 5 8 9 8 8 7
2 3 2 3 4 4 14 16 5 3 3 3 5 5 3 4 2 5 7 2 4 1 1 2 2 6 6 3 5 6 6 7 6 4 5 10 8 14 9 9 7 8 9 9 7
3 4 5 3 6 11 5 4 18 12 3 4 4 7 7 5 4 5 3 2 1 2 2 2 4 2 3 3 2 3 5 12 10 7 9 11 12 17 7 8 9 7 5 7 7
4 2 4 3 3 9 13 21 16 12 12 5 7 10 10 8 10 10 8 5 6 2 5 1 1 1 3 1 3 5 7 13 16 3 13 13 22 19 19 6 6 8 5 8 6
2 3 3 8 4 3 4 6 10 12 7 15 15 9 13 8 4 3 5 5 5 9 8 5 5 3 6 2 1 8 14 18 8 7 10 11 20 1 6 5 6 8 8 10 8
Wind_Direction
351 347 346 346 345 345 346 344 340 340 338 337 333 327 330 331 325 61 64 230 303 316 360 315 32 64 62 88 72 130 74 193 235 168 240 9 65 39 300 270 308 233 169 138 323
344 345 343 343 342 343 342 340 338 338 337 332 327 324 323 329 5 81 181 328 322 327 350 150 148 119 64 80 36 94 139 214 203 196 209 221 127 289 350 2 258 306 205 42 7
342 338 341 339 337 337 339 338 334 337 332 325 322 318 314 322 255 173 330 342 333 332 201 182 136 101 86 106 138 159 190 202 221 193 180 218 277 186 183 261 219 164 268 342 348
336 335 334 336 332 332 335 333 332 330 327 321 317 312 316 235 216 231 333 346 1 120 142 132 135 83 118 159 158 142 198 182 182 160 187 230 344 279 192 230 110 295 287 289 318
326 328 330 331 329 328 329 326 326 322 319 314 307 314 300 210 238 320 347 14 74 98 112 147 142 128 149 151 120 155 186 169 13 297 270 322 252 242 256 260 266 346 196 275 309
322 325 326 327 328 327 324 319 318 313 306 305 299 319 221 250 151 346 347 78 63 78 68 111 183 160 111 141 152 154 130 247 308 26 335 321 275 97 274 15 150 3 300 298 301
318 320 322 324 326 325 320 316 313 302 289 279 277 256 194 228 157 27 31 84 74 103 121 298 138 75 128 117 152 113 130 154 34 332 274 313 279 234 247 11 63 326 298 294 307
319 315 317 318 320 319 318 313 309 300 269 233 232 205 231 169 175 40 351 58 39 76 101 103 96 99 71 122 37 86 66 152 72 354 343 79 270 282 143 57 314 312 301 315 315
2 332 317 317 319 318 316 312 303 328 121 155 129 218 242 141 117 331 37 111 70 69 54 85 67 90 58 104 44 13 209 212 305 45 321 140 274 278 183 336 293 299 289 280 153
354 353 346 319 323 323 322 314 276 97 70 103 41 18 156 190 165 97 38 92 112 113 64 50 55 82 47 92 208 189 197 222 244 332 342 257 262 264 263 248 275 273 261 216 167
348 347 350 329 332 332 345 10 15 339 26 205 270 221 144 105 206 60 0 113 98 54 166 356 104 204 189 177 91 104 107 253 262 320 299 254 278 277 275 230 256 251 197 183 172
345 343 343 340 335 334 35 72 169 207 312 263 240 233 154 199 134 169 175 135 156 183 149 40 214 150 118 107 103 90 112 247 276 210 299 337 290 282 276 245 209 190 171 172 144
348 345 345 339 330 23 48 158 166 158 101 285 204 183 183 154 195 164 170 144 126 145 188 163 130 147 122 132 124 115 172 233 268 319 68 296 291 347 28 194 113 121 158 149 128
344 345 344 343 316 243 106 177 171 242 35 253 233 179 114 138 180 141 18 124 62 170 145 127 145 153 135 167 143 183 117 93 335 19 269 358 276 306 337 299 242 193 188 178 139
338 339 341 338 311 264 128 109 96 276 302 340 162 271 112 180 139 32 36 76 149 146 130 215 160 155 166 200 178 140 110 97 58 80 11 33 73 271 351 264 232 220 209 204 211
333 334 337 317 231 283 77 93 101 67 246 311 106 163 119 355 284 149 94 53 127 106 48 95 337 110 106 73 64 139 85 58 51 31 28 245 126 276 205 213 296 217 206 198 230
329 328 321 262 279 34 322 66 44 223 331 284 143 146 182 168 206 77 151 156 157 129 194 119 176 136 149 102 59 100 72 340 346 8 215 27 235 247 249 230 222 269 214 193 261
331 327 308 298 138 225 76 79 218 217 231 256 56 54 237 142 61 114 124 240 223 127 118 152 284 171 178 209 168 157 151 156 212 232 275 12 239 251 211 220 254 263 199 181 286
335 297 274 229 172 141 179 207 211 196 165 160 294 97 321 319 53 144 197 235 209 177 171 146 158 76 30 82 74 189 166 145 102 62 40 252 281 284 244 252 236 215 217 237 281
324 285 246 157 151 191 192 227 214 173 135 125 187 106 179 170 162 226 182 207 213 194 99 199 92 359 179 147 41 132 140 84 1 152 270 287 279 244 268 237 215 224 226 230 264
341 314 328 44 169 211 220 225 207 206 154 161 196 150 233 173 146 188 253 296 90 120 61 148 109 141 140 207 174 130 62 54 113 131 173 248 261 212 211 196 226 246 237 229 255
262 272 338 180 210 208 231 189 196 184 116 177 146 163 191 175 156 220 231 213 76 169 169 195 126 159 209 88 319 190 174 156 129 223 145 142 270 218 220 233 227 258 260 240 242
244 254 212 337 228 225 253 268 226 171 182 187 197 190 157 163 202 192 208 28 125 204 160 207 243 80 6 23 358 220 187 123 115 96 201 143 258 205 266 258 238 242 251 251 261
255 271 241 189 277 250 233 239 234 216 202 189 151 94 147 166 201 197 218 64 341 206 42 110 168 170 191 160 124 191 179 167 135 130 182 228 286 268 246 251 254 245 246 263 271
266 247 180 276 238 263 259 267 226 229 245 156 197 196 188 160 165 218 155 136 291 192 94 172 217 173 254 225 186 203 172 176 199 194 187 262 208 254 260 237 247 232 233 248 253
247 270 319 271 249 290 272 239 246 232 186 223 237 181 206 176 187 188 158 183 183 156 186 329 321 107 278 216 199 259 224 197 215 236 261 272 286 264 276 268 277 268 275 273 256
205 209 211 263 204 221 233 352 282 268 242 227 198 178 213 217 129 61 96 120 147 151 153 156 153 128 261 44 306 291 226 198 195 207 191 201 235 338 268 241 249 266 237 254 251